User: anonymous
Location: Mount Wilson Observatory
(34.2257°N, 118.0571°W)
Time: 04:27:28
(UTC-07:00)
Language:

ATLAS 3B CENTAUR R/B - Orbit

View from above orbital plane
View from above orbital plane
View from above satellite
View from above satellite

Ground track
Ground track

The orbit data is extracted from the following two-line orbital elements,

1 28118U 03057B   14258.63180123  .00061374  00000-0  14867-2 0  7491
2 28118 028.1383 304.3226 3836499 039.4146 053.4719 07.81822267202642
Epoch (UTC): 15 September 2014 15:09:47
Eccentricity: 0.3836499
inclination: 28.1383°
perigee height: 231 km
apogee height: 8459 km
right ascension of ascending node: 304.3226°
argument of perigee: 39.4146°
revolutions per day: 7.81822267
mean anomaly at epoch: 53.4719°
orbit number at epoch: 20264

The dashed part of the orbit path shows where the satellite is in the earth's shadow,  

DLR